Location: Härggis
(46.9540°N, 8.4897°E)
Time: 22:32:57
(UTC+00:00)

Lacrosse 5 - Pass Details

Date: 27 May 2022
Orbit: 714 x 724 km, 57.0° (Epoch: 09 March)

Event Time Altitude Azimuth Distance (km) Brightness Sun altitude
Exits shadow 00:07:00 26° 131° (SE) 1,391 3.1 -21.1°
Maximum altitude 00:07:15 27° 126° (SE) 1,387 3.1 -21.1°
Drops below altitude 10° 00:11:28 10° 70° (ENE) 2,216 4.8 -20.9°
Sets 00:14:10 0° 58° (ENE) 3,140 5.8 -20.8°
